Year,Month,Day,Hour,Minute,Value (Times are PST for temperature in C)
2009,04,06,00,00,5.10
2009,04,06,00,01,5.10
2009,04,06,00,02,5.10
2009,04,06,00,03,5.10
2009,04,06,00,04,5.10
2009,04,06,00,05,5.10
2009,04,06,00,06,5.10
2009,04,06,00,07,5.10
2009,04,06,00,08,5.00
2009,04,06,00,09,5.00
2009,04,06,00,10,5.00
2009,04,06,00,11,5.00
2009,04,06,00,12,5.00
2009,04,06,00,13,5.00
2009,04,06,00,14,4.90
2009,04,06,00,15,4.90
2009,04,06,00,16,4.90
2009,04,06,00,17,4.90
2009,04,06,00,18,4.90
2009,04,06,00,19,4.90
2009,04,06,00,20,4.80
2009,04,06,00,21,4.80
2009,04,06,00,22,4.80
2009,04,06,00,23,4.80
2009,04,06,00,24,4.70
2009,04,06,00,25,4.70
2009,04,06,00,26,4.70
2009,04,06,00,27,4.70
2009,04,06,00,28,4.60
2009,04,06,00,29,4.60
2009,04,06,00,30,4.60
2009,04,06,00,31,4.60
2009,04,06,00,32,4.50
2009,04,06,00,33,4.50
2009,04,06,00,34,4.50
2009,04,06,00,35,4.40
2009,04,06,00,36,4.40
2009,04,06,00,37,4.40
2009,04,06,00,38,4.40
2009,04,06,00,39,4.40
2009,04,06,00,40,4.30
2009,04,06,00,41,4.30
2009,04,06,00,42,4.30
2009,04,06,00,43,4.30
2009,04,06,00,44,4.30
2009,04,06,00,45,4.20
2009,04,06,00,46,4.20
2009,04,06,00,47,4.20
2009,04,06,00,48,4.20
2009,04,06,00,49,4.10
2009,04,06,00,50,4.10
2009,04,06,00,51,4.10
2009,04,06,00,52,4.10
2009,04,06,00,53,4.10
2009,04,06,00,54,4.10
2009,04,06,00,55,4.10
2009,04,06,00,56,4.10
2009,04,06,00,57,4.10
2009,04,06,00,58,4.10
2009,04,06,00,59,4.10
2009,04,06,01,00,4.10
2009,04,06,01,01,4.10
2009,04,06,01,02,4.00
2009,04,06,01,03,4.00
2009,04,06,01,04,4.00
2009,04,06,01,05,4.00
2009,04,06,01,06,3.90
2009,04,06,01,07,3.90
2009,04,06,01,08,4.00
2009,04,06,01,09,3.90
2009,04,06,01,10,3.90
2009,04,06,01,11,3.90
2009,04,06,01,12,3.90
2009,04,06,01,13,3.90
2009,04,06,01,14,3.90
2009,04,06,01,15,3.90
2009,04,06,01,16,3.90
2009,04,06,01,17,3.90
2009,04,06,01,18,3.90
2009,04,06,01,19,3.90
2009,04,06,01,20,3.90
2009,04,06,01,21,3.90
2009,04,06,01,22,3.90
2009,04,06,01,23,3.80
2009,04,06,01,24,3.80
2009,04,06,01,25,3.80
2009,04,06,01,26,3.80
2009,04,06,01,27,3.80
2009,04,06,01,28,3.80
2009,04,06,01,29,3.80
2009,04,06,01,30,3.80
2009,04,06,01,31,3.80
2009,04,06,01,32,3.80
2009,04,06,01,33,3.70
2009,04,06,01,34,3.70
2009,04,06,01,35,3.70
2009,04,06,01,36,3.70
2009,04,06,01,37,3.70
2009,04,06,01,38,3.70
2009,04,06,01,39,3.70
2009,04,06,01,40,3.60
2009,04,06,01,41,3.60
2009,04,06,01,42,3.60
2009,04,06,01,43,3.60
2009,04,06,01,44,3.60
2009,04,06,01,45,3.60
2009,04,06,01,46,3.60
2009,04,06,01,47,3.60
2009,04,06,01,48,3.60
2009,04,06,01,49,3.60
2009,04,06,01,50,3.60
2009,04,06,01,51,3.60
2009,04,06,01,52,3.60
2009,04,06,01,53,3.60
2009,04,06,01,54,3.60
2009,04,06,01,55,3.60
2009,04,06,01,56,3.60
2009,04,06,01,57,3.60
2009,04,06,01,58,3.50
2009,04,06,01,59,3.50
2009,04,06,02,00,3.50
2009,04,06,02,01,3.50
2009,04,06,02,02,3.50
2009,04,06,02,03,3.50
2009,04,06,02,04,3.50
2009,04,06,02,05,3.50
2009,04,06,02,06,3.40
2009,04,06,02,07,3.40
2009,04,06,02,08,3.40
2009,04,06,02,09,3.40
2009,04,06,02,10,3.40
2009,04,06,02,11,3.40
2009,04,06,02,12,3.40
2009,04,06,02,13,3.40
2009,04,06,02,14,3.40
2009,04,06,02,15,3.40
2009,04,06,02,16,3.40
2009,04,06,02,17,3.40
2009,04,06,02,18,3.40
2009,04,06,02,19,3.40
2009,04,06,02,20,3.40
2009,04,06,02,21,3.40
2009,04,06,02,22,3.40
2009,04,06,02,23,3.40
2009,04,06,02,24,3.40
2009,04,06,02,25,3.40
2009,04,06,02,26,3.40
2009,04,06,02,27,3.40
2009,04,06,02,28,3.40
2009,04,06,02,29,3.30
2009,04,06,02,30,3.30
2009,04,06,02,31,3.30
2009,04,06,02,32,3.30
2009,04,06,02,33,3.30
2009,04,06,02,34,3.30
2009,04,06,02,35,3.20
2009,04,06,02,36,3.20
2009,04,06,02,37,3.20
2009,04,06,02,38,3.20
2009,04,06,02,39,3.20
2009,04,06,02,40,3.20
2009,04,06,02,41,3.20
2009,04,06,02,42,3.20
2009,04,06,02,43,3.20
2009,04,06,02,44,3.20
2009,04,06,02,45,3.20
2009,04,06,02,46,3.20
2009,04,06,02,47,3.20
2009,04,06,02,48,3.10
2009,04,06,02,49,3.10
2009,04,06,02,50,3.10
2009,04,06,02,51,3.20
2009,04,06,02,52,3.20
2009,04,06,02,53,3.20
2009,04,06,02,54,3.20
2009,04,06,02,55,3.20
2009,04,06,02,56,3.20
2009,04,06,02,57,3.20
2009,04,06,02,58,3.20
2009,04,06,02,59,3.20
2009,04,06,03,00,3.20
2009,04,06,03,01,3.20
2009,04,06,03,02,3.20
2009,04,06,03,03,3.20
2009,04,06,03,04,3.20
2009,04,06,03,05,3.20
2009,04,06,03,06,3.20
2009,04,06,03,07,3.20
2009,04,06,03,08,3.20
2009,04,06,03,09,3.20
2009,04,06,03,10,3.20
2009,04,06,03,11,3.20
2009,04,06,03,12,3.20
2009,04,06,03,13,3.20
2009,04,06,03,14,3.20
2009,04,06,03,15,3.20
2009,04,06,03,16,3.20
2009,04,06,03,17,3.20
2009,04,06,03,18,3.20
2009,04,06,03,19,3.20
2009,04,06,03,20,3.20
2009,04,06,03,21,3.20
2009,04,06,03,22,3.10
2009,04,06,03,23,3.10
2009,04,06,03,24,3.10
2009,04,06,03,25,3.10
2009,04,06,03,26,3.10
2009,04,06,03,27,3.10
2009,04,06,03,28,3.10
2009,04,06,03,29,3.10
2009,04,06,03,30,3.10
2009,04,06,03,31,3.00
2009,04,06,03,32,3.00
2009,04,06,03,33,3.00
2009,04,06,03,34,3.00
2009,04,06,03,35,3.00
2009,04,06,03,36,3.00
2009,04,06,03,37,2.90
2009,04,06,03,38,2.90
2009,04,06,03,39,2.90
2009,04,06,03,40,2.90
2009,04,06,03,41,2.90
2009,04,06,03,42,2.90
2009,04,06,03,43,2.90
2009,04,06,03,44,2.90
2009,04,06,03,45,2.90
2009,04,06,03,46,2.80
2009,04,06,03,47,2.80
2009,04,06,03,48,2.80
2009,04,06,03,49,2.80
2009,04,06,03,50,2.80
2009,04,06,03,51,2.80
2009,04,06,03,52,2.80
2009,04,06,03,53,2.80
2009,04,06,03,54,2.80
2009,04,06,03,55,2.80
2009,04,06,03,56,2.80
2009,04,06,03,57,2.80
2009,04,06,03,58,2.80
2009,04,06,03,59,2.80
2009,04,06,04,00,2.80
2009,04,06,04,01,2.80
2009,04,06,04,02,2.80
2009,04,06,04,03,2.80
2009,04,06,04,04,2.90
2009,04,06,04,05,2.90
2009,04,06,04,06,2.90
2009,04,06,04,07,2.90
2009,04,06,04,08,2.90
2009,04,06,04,09,2.90
2009,04,06,04,10,2.90
2009,04,06,04,11,2.90
2009,04,06,04,12,2.90
2009,04,06,04,13,2.80
2009,04,06,04,14,2.80
2009,04,06,04,15,2.80
2009,04,06,04,16,2.80
2009,04,06,04,17,2.80
2009,04,06,04,18,2.80
2009,04,06,04,19,2.80
2009,04,06,04,20,2.80
2009,04,06,04,21,2.80
2009,04,06,04,22,2.80
2009,04,06,04,23,2.80
2009,04,06,04,24,2.80
2009,04,06,04,25,2.80
2009,04,06,04,26,2.70
2009,04,06,04,27,2.70
2009,04,06,04,28,2.70
2009,04,06,04,29,2.70
2009,04,06,04,30,2.70
2009,04,06,04,31,2.70
2009,04,06,04,32,2.70
2009,04,06,04,33,2.70
2009,04,06,04,34,2.70
2009,04,06,04,35,2.70
2009,04,06,04,36,2.70
2009,04,06,04,37,2.70
2009,04,06,04,38,2.60
2009,04,06,04,39,2.60
2009,04,06,04,40,2.60
2009,04,06,04,41,2.60
2009,04,06,04,42,2.60
2009,04,06,04,43,2.50
2009,04,06,04,44,2.50
2009,04,06,04,45,2.50
2009,04,06,04,46,2.40
2009,04,06,04,47,2.40
2009,04,06,04,48,2.40
2009,04,06,04,49,2.40
2009,04,06,04,50,2.30
2009,04,06,04,51,2.30
2009,04,06,04,52,2.30
2009,04,06,04,53,2.30
2009,04,06,04,54,2.30
2009,04,06,04,55,2.20
2009,04,06,04,56,2.20
2009,04,06,04,57,2.20
2009,04,06,04,58,2.20
2009,04,06,04,59,2.20
2009,04,06,05,00,2.20
2009,04,06,05,01,2.20
2009,04,06,05,02,2.20
2009,04,06,05,03,2.20
2009,04,06,05,04,2.20
2009,04,06,05,05,2.20
2009,04,06,05,06,2.20
2009,04,06,05,07,2.20
2009,04,06,05,08,2.20
2009,04,06,05,09,2.20
2009,04,06,05,10,2.20
2009,04,06,05,11,2.20
2009,04,06,05,12,2.20
2009,04,06,05,13,2.20
2009,04,06,05,14,2.20
2009,04,06,05,15,2.20
2009,04,06,05,16,2.20
2009,04,06,05,17,2.20
2009,04,06,05,18,2.20
2009,04,06,05,19,2.20
2009,04,06,05,20,2.20
2009,04,06,05,21,2.20
2009,04,06,05,22,2.20
2009,04,06,05,23,2.20
2009,04,06,05,24,2.20
2009,04,06,05,25,2.20
2009,04,06,05,26,2.20
2009,04,06,05,27,2.20
2009,04,06,05,28,2.20
2009,04,06,05,29,2.20
2009,04,06,05,30,2.20
2009,04,06,05,31,2.20
2009,04,06,05,32,2.20
2009,04,06,05,33,2.20
2009,04,06,05,34,2.20
2009,04,06,05,35,2.20
2009,04,06,05,36,2.20
2009,04,06,05,37,2.20
2009,04,06,05,38,2.20
2009,04,06,05,39,2.20
2009,04,06,05,40,2.20
2009,04,06,05,41,2.20
2009,04,06,05,42,2.20
2009,04,06,05,43,2.20
2009,04,06,05,44,2.20
2009,04,06,05,45,2.20
2009,04,06,05,46,2.20
2009,04,06,05,47,2.20
2009,04,06,05,48,2.20
2009,04,06,05,49,2.10
2009,04,06,05,50,2.10
2009,04,06,05,51,2.10
2009,04,06,05,52,2.10
2009,04,06,05,53,2.10
2009,04,06,05,54,2.10
2009,04,06,05,55,2.10
2009,04,06,05,56,2.10
2009,04,06,05,57,2.00
2009,04,06,05,58,2.00
2009,04,06,05,59,2.00
2009,04,06,06,00,2.00
2009,04,06,06,01,2.00
2009,04,06,06,02,1.90
2009,04,06,06,03,1.90
2009,04,06,06,04,1.90
2009,04,06,06,05,1.90
2009,04,06,06,06,1.90
2009,04,06,06,07,1.90
2009,04,06,06,08,1.90
2009,04,06,06,09,1.90
2009,04,06,06,10,1.90
2009,04,06,06,11,1.90
2009,04,06,06,12,1.90
2009,04,06,06,13,1.90
2009,04,06,06,14,1.90
2009,04,06,06,15,1.90
2009,04,06,06,16,1.90
2009,04,06,06,17,1.90
2009,04,06,06,18,1.90
2009,04,06,06,19,1.90
2009,04,06,06,20,1.90
2009,04,06,06,21,1.90
2009,04,06,06,22,1.90
2009,04,06,06,23,1.90
2009,04,06,06,24,1.90
2009,04,06,06,25,1.90
2009,04,06,06,26,1.90
2009,04,06,06,27,1.90
2009,04,06,06,28,1.80
2009,04,06,06,29,1.80
2009,04,06,06,30,1.80
2009,04,06,06,31,1.80
2009,04,06,06,32,1.80
2009,04,06,06,33,1.80
2009,04,06,06,34,1.80
2009,04,06,06,35,1.80
2009,04,06,06,36,1.80
2009,04,06,06,37,1.80
2009,04,06,06,38,1.80
2009,04,06,06,39,1.80
2009,04,06,06,40,1.80
2009,04,06,06,41,1.80
2009,04,06,06,42,1.80
2009,04,06,06,43,1.90
2009,04,06,06,44,1.90
2009,04,06,06,45,1.90
2009,04,06,06,46,1.90
2009,04,06,06,47,1.90
2009,04,06,06,48,1.90
2009,04,06,06,49,1.90
2009,04,06,06,50,1.90
2009,04,06,06,51,1.90
2009,04,06,06,52,1.90
2009,04,06,06,53,1.90
2009,04,06,06,54,1.90
2009,04,06,06,55,1.90
2009,04,06,06,56,1.90
2009,04,06,06,57,1.90
2009,04,06,06,58,1.90
2009,04,06,06,59,1.90
2009,04,06,07,00,1.90
2009,04,06,07,01,1.90
2009,04,06,07,02,1.90
2009,04,06,07,03,1.90
2009,04,06,07,04,1.90
2009,04,06,07,05,1.90
2009,04,06,07,06,1.80
2009,04,06,07,07,1.80
2009,04,06,07,08,1.80
2009,04,06,07,09,1.80
2009,04,06,07,10,1.80
2009,04,06,07,11,1.80
2009,04,06,07,12,1.80
2009,04,06,07,13,1.80
2009,04,06,07,14,1.80
2009,04,06,07,15,1.80
2009,04,06,07,16,1.80
2009,04,06,07,17,1.80
2009,04,06,07,18,1.80
2009,04,06,07,19,1.80
2009,04,06,07,20,1.80
2009,04,06,07,21,1.80
2009,04,06,07,22,1.80
2009,04,06,07,23,1.80
2009,04,06,07,24,1.80
2009,04,06,07,25,1.80
2009,04,06,07,26,1.80
2009,04,06,07,27,1.80
2009,04,06,07,28,1.80
2009,04,06,07,29,1.80
2009,04,06,07,30,1.80
2009,04,06,07,31,1.80
2009,04,06,07,32,1.80
2009,04,06,07,33,1.80
2009,04,06,07,34,1.80
2009,04,06,07,35,1.80
2009,04,06,07,36,1.80
2009,04,06,07,37,1.90
2009,04,06,07,38,1.90
2009,04,06,07,39,1.90
2009,04,06,07,40,1.90
2009,04,06,07,41,2.00
2009,04,06,07,42,2.00
2009,04,06,07,43,2.10
2009,04,06,07,44,2.10
2009,04,06,07,45,2.10
2009,04,06,07,46,2.20
2009,04,06,07,47,2.20
2009,04,06,07,48,2.20
2009,04,06,07,49,2.20
2009,04,06,07,50,2.30
2009,04,06,07,51,2.30
2009,04,06,07,52,2.30
2009,04,06,07,53,2.30
2009,04,06,07,54,2.30
2009,04,06,07,55,2.40
2009,04,06,07,56,2.40
2009,04,06,07,57,2.40
2009,04,06,07,58,2.50
2009,04,06,07,59,2.50
2009,04,06,08,00,2.60
2009,04,06,08,01,2.60
2009,04,06,08,02,2.60
2009,04,06,08,03,2.70
2009,04,06,08,04,2.70
2009,04,06,08,05,2.70
2009,04,06,08,06,2.70
2009,04,06,08,07,2.70
2009,04,06,08,08,2.80
2009,04,06,08,09,2.80
2009,04,06,08,10,2.80
2009,04,06,08,11,2.80
2009,04,06,08,12,2.80
2009,04,06,08,13,2.80
2009,04,06,08,14,2.80
2009,04,06,08,15,2.90
2009,04,06,08,16,2.90
2009,04,06,08,17,3.00
2009,04,06,08,18,3.00
2009,04,06,08,19,3.10
2009,04,06,08,20,3.10
2009,04,06,08,21,3.20
2009,04,06,08,22,3.20
2009,04,06,08,23,3.30
2009,04,06,08,24,3.30
2009,04,06,08,25,3.40
2009,04,06,08,26,3.40
2009,04,06,08,27,3.50
2009,04,06,08,28,3.50
2009,04,06,08,29,3.60
2009,04,06,08,30,3.60
2009,04,06,08,31,3.70
2009,04,06,08,32,3.70
2009,04,06,08,33,3.80
2009,04,06,08,34,3.80
2009,04,06,08,35,3.80
2009,04,06,08,36,3.80
2009,04,06,08,37,3.90
2009,04,06,08,38,3.90
2009,04,06,08,39,3.90
2009,04,06,08,40,4.00
2009,04,06,08,41,4.00
2009,04,06,08,42,4.10
2009,04,06,08,43,4.10
2009,04,06,08,44,4.10
2009,04,06,08,45,4.10
2009,04,06,08,46,4.10
2009,04,06,08,47,4.10
2009,04,06,08,48,4.20
2009,04,06,08,49,4.20
2009,04,06,08,50,4.20
2009,04,06,08,51,4.20
2009,04,06,08,52,4.20
2009,04,06,08,53,4.30
2009,04,06,08,54,4.30
2009,04,06,08,55,4.30
2009,04,06,08,56,4.40
2009,04,06,08,57,4.40
2009,04,06,08,58,4.50
2009,04,06,08,59,4.50
2009,04,06,09,00,4.60
2009,04,06,09,01,4.60
2009,04,06,09,02,4.70
2009,04,06,09,03,4.70
2009,04,06,09,04,4.70
2009,04,06,09,05,4.80
2009,04,06,09,06,4.80
2009,04,06,09,07,4.90
2009,04,06,09,08,4.90
2009,04,06,09,09,5.00
2009,04,06,09,10,5.10
2009,04,06,09,11,5.20
2009,04,06,09,12,5.20
2009,04,06,09,13,5.30
2009,04,06,09,14,5.40
2009,04,06,09,15,5.40
2009,04,06,09,16,5.50
2009,04,06,09,17,5.60
2009,04,06,09,18,5.60
2009,04,06,09,19,5.70
2009,04,06,09,20,5.80
2009,04,06,09,21,5.80
2009,04,06,09,22,5.90
2009,04,06,09,23,6.00
2009,04,06,09,24,6.00
2009,04,06,09,25,6.10
2009,04,06,09,26,6.10
2009,04,06,09,27,6.20
2009,04,06,09,28,6.20
2009,04,06,09,29,6.30
2009,04,06,09,30,6.30
2009,04,06,09,31,6.40
2009,04,06,09,32,6.50
2009,04,06,09,33,6.60
2009,04,06,09,34,6.60
2009,04,06,09,35,6.70
2009,04,06,09,36,6.80
2009,04,06,09,37,6.80
2009,04,06,09,38,6.90
2009,04,06,09,39,7.00
2009,04,06,09,40,7.10
2009,04,06,09,41,7.20
2009,04,06,09,42,7.20
2009,04,06,09,43,7.30
2009,04,06,09,44,7.30
2009,04,06,09,45,7.40
2009,04,06,09,46,7.50
2009,04,06,09,47,7.70
2009,04,06,09,48,7.70
2009,04,06,09,49,7.80
2009,04,06,09,50,7.90
2009,04,06,09,51,8.00
2009,04,06,09,52,8.10
2009,04,06,09,53,8.20
2009,04,06,09,54,8.30
2009,04,06,09,55,8.40
2009,04,06,09,56,8.50
2009,04,06,09,57,8.60
2009,04,06,09,58,8.70
2009,04,06,09,59,8.80
2009,04,06,10,00,8.90
2009,04,06,10,01,9.00
2009,04,06,10,02,9.10
2009,04,06,10,03,9.30
2009,04,06,10,04,9.40
2009,04,06,10,05,9.50
2009,04,06,10,06,9.60
2009,04,06,10,07,9.70
2009,04,06,10,08,9.80
2009,04,06,10,09,9.90
2009,04,06,10,10,10.10
2009,04,06,10,11,10.10
2009,04,06,10,12,10.20
2009,04,06,10,13,10.30
2009,04,06,10,14,10.40
2009,04,06,10,15,10.50
2009,04,06,10,16,10.60
2009,04,06,10,17,10.70
2009,04,06,10,18,10.80
2009,04,06,10,19,10.90
2009,04,06,10,20,11.00
2009,04,06,10,21,11.20
2009,04,06,10,22,11.30
2009,04,06,10,23,11.40
2009,04,06,10,24,11.50
2009,04,06,10,25,11.60
2009,04,06,10,26,11.70
2009,04,06,10,27,11.80
2009,04,06,10,28,11.90
2009,04,06,10,29,11.90
2009,04,06,10,30,12.00
2009,04,06,10,31,12.10
2009,04,06,10,32,12.10
2009,04,06,10,33,12.20
2009,04,06,10,34,12.30
2009,04,06,10,35,12.30
2009,04,06,10,36,12.40
2009,04,06,10,37,12.50
2009,04,06,10,38,12.60
2009,04,06,10,39,12.60
2009,04,06,10,40,12.70
2009,04,06,10,41,12.80
2009,04,06,10,42,12.90
2009,04,06,10,43,13.00
2009,04,06,10,44,13.10
2009,04,06,10,45,13.10
2009,04,06,10,46,13.20
2009,04,06,10,47,13.30
2009,04,06,10,48,13.40
2009,04,06,10,49,13.50
2009,04,06,10,50,13.50
2009,04,06,10,51,13.60
2009,04,06,10,52,13.70
2009,04,06,10,53,13.70
2009,04,06,10,54,13.80
2009,04,06,10,55,13.80
2009,04,06,10,56,13.90
2009,04,06,10,57,13.90
2009,04,06,10,58,14.00
2009,04,06,10,59,14.00
2009,04,06,11,00,14.00
2009,04,06,11,01,14.00
2009,04,06,11,02,14.00
2009,04,06,11,03,14.00
2009,04,06,11,04,14.00
2009,04,06,11,05,14.10
2009,04,06,11,06,14.10
2009,04,06,11,07,14.10
2009,04,06,11,08,14.10
2009,04,06,11,09,14.10
2009,04,06,11,10,14.10
2009,04,06,11,11,14.20
2009,04,06,11,12,14.20
2009,04,06,11,13,14.30
2009,04,06,11,14,14.40
2009,04,06,11,15,14.40
2009,04,06,11,16,14.50
2009,04,06,11,17,14.50
2009,04,06,11,18,14.60
2009,04,06,11,19,14.60
2009,04,06,11,20,14.50
2009,04,06,11,21,14.50
2009,04,06,11,22,14.40
2009,04,06,11,23,14.40
2009,04,06,11,24,14.40
2009,04,06,11,25,14.40
2009,04,06,11,26,14.30
2009,04,06,11,27,14.30
2009,04,06,11,28,14.30
2009,04,06,11,29,14.30
2009,04,06,11,30,14.20
2009,04,06,11,31,14.20
2009,04,06,11,32,14.20
2009,04,06,11,33,14.20
2009,04,06,11,34,14.20
2009,04,06,11,35,14.20
2009,04,06,11,36,14.20
2009,04,06,11,37,14.20
2009,04,06,11,38,14.20
2009,04,06,11,39,14.30
2009,04,06,11,40,14.30
2009,04,06,11,41,14.40
2009,04,06,11,42,14.40
2009,04,06,11,43,14.40
2009,04,06,11,44,14.40
2009,04,06,11,45,14.50
2009,04,06,11,46,14.50
2009,04,06,11,47,14.50
2009,04,06,11,48,14.50
2009,04,06,11,49,14.50
2009,04,06,11,50,14.60
2009,04,06,11,51,14.60
2009,04,06,11,52,14.60
2009,04,06,11,53,14.70
2009,04,06,11,54,14.60
2009,04,06,11,55,14.60
2009,04,06,11,56,14.60
2009,04,06,11,57,14.70
2009,04,06,11,58,14.70
2009,04,06,11,59,14.70
2009,04,06,12,00,14.70
2009,04,06,12,01,14.70
2009,04,06,12,02,14.70
2009,04,06,12,03,14.70
2009,04,06,12,04,14.60
2009,04,06,12,05,14.60
2009,04,06,12,06,14.60
2009,04,06,12,07,14.60
2009,04,06,12,08,14.60
2009,04,06,12,09,14.60
2009,04,06,12,10,14.50
2009,04,06,12,11,14.50
2009,04,06,12,12,14.50
2009,04,06,12,13,14.40
2009,04,06,12,14,14.40
2009,04,06,12,15,14.50
2009,04,06,12,16,14.50
2009,04,06,12,17,14.60
2009,04,06,12,18,14.60
2009,04,06,12,19,14.60
2009,04,06,12,20,14.60
2009,04,06,12,21,14.60
2009,04,06,12,22,14.70
2009,04,06,12,23,14.70
2009,04,06,12,24,14.70
2009,04,06,12,25,14.80
2009,04,06,12,26,14.90
2009,04,06,12,27,14.90
2009,04,06,12,28,15.00
2009,04,06,12,29,15.00
2009,04,06,12,30,15.00
2009,04,06,12,31,15.00
2009,04,06,12,32,15.00
2009,04,06,12,33,15.00
2009,04,06,12,34,15.20
2009,04,06,12,35,15.30
2009,04,06,12,36,15.30
2009,04,06,12,37,15.40
2009,04,06,12,38,15.40
2009,04,06,12,39,15.40
2009,04,06,12,40,15.40
2009,04,06,12,41,15.50
2009,04,06,12,42,15.50
2009,04,06,12,43,15.60
2009,04,06,12,44,15.60
2009,04,06,12,45,15.70
2009,04,06,12,46,15.70
2009,04,06,12,47,15.80
2009,04,06,12,48,15.80
2009,04,06,12,49,15.80
2009,04,06,12,50,15.80
2009,04,06,12,51,15.80
2009,04,06,12,52,15.80
2009,04,06,12,53,15.90
2009,04,06,12,54,15.90
2009,04,06,12,55,15.90
2009,04,06,12,56,15.80
2009,04,06,12,57,15.70
2009,04,06,12,58,15.70
2009,04,06,12,59,15.60
2009,04,06,13,00,15.50
2009,04,06,13,01,15.50
2009,04,06,13,02,15.60
2009,04,06,13,03,15.60
2009,04,06,13,04,15.60
2009,04,06,13,05,15.70
2009,04,06,13,06,15.60
2009,04,06,13,07,15.60
2009,04,06,13,08,15.60
2009,04,06,13,09,15.60
2009,04,06,13,10,15.60
2009,04,06,13,11,15.70
2009,04,06,13,12,15.80
2009,04,06,13,13,15.80
2009,04,06,13,14,15.90
2009,04,06,13,15,16.00
2009,04,06,13,16,16.00
2009,04,06,13,17,16.10
2009,04,06,13,18,16.20
2009,04,06,13,19,16.20
2009,04,06,13,20,16.20
2009,04,06,13,21,16.30
2009,04,06,13,22,16.30
2009,04,06,13,23,16.30
2009,04,06,13,24,16.30
2009,04,06,13,25,16.20
2009,04,06,13,26,16.20
2009,04,06,13,27,16.20
2009,04,06,13,28,16.20
2009,04,06,13,29,16.20
2009,04,06,13,30,16.20
2009,04,06,13,31,16.20
2009,04,06,13,32,16.20
2009,04,06,13,33,16.20
2009,04,06,13,34,16.20
2009,04,06,13,35,16.20
2009,04,06,13,36,16.30
2009,04,06,13,37,16.30
2009,04,06,13,38,16.20
2009,04,06,13,39,16.20
2009,04,06,13,40,16.10
2009,04,06,13,41,15.90
2009,04,06,13,42,15.80
2009,04,06,13,43,15.80
2009,04,06,13,44,15.80
2009,04,06,13,45,15.70
2009,04,06,13,46,15.70
2009,04,06,13,47,15.80
2009,04,06,13,48,15.80
2009,04,06,13,49,15.90
2009,04,06,13,50,15.90
2009,04,06,13,51,15.90
2009,04,06,13,52,15.90
2009,04,06,13,53,15.90
2009,04,06,13,54,15.90
2009,04,06,13,55,15.90
2009,04,06,13,56,16.00
2009,04,06,13,57,16.00
2009,04,06,13,58,16.10
2009,04,06,13,59,16.20
2009,04,06,14,00,16.30
2009,04,06,14,01,16.30
2009,04,06,14,02,16.30
2009,04,06,14,03,16.30
2009,04,06,14,04,16.30
2009,04,06,14,05,16.30
2009,04,06,14,06,16.30
2009,04,06,14,07,16.30
2009,04,06,14,08,16.20
2009,04,06,14,09,16.20
2009,04,06,14,10,16.10
2009,04,06,14,11,16.10
2009,04,06,14,12,16.10
2009,04,06,14,13,16.10
2009,04,06,14,14,16.10
2009,04,06,14,15,16.10
2009,04,06,14,16,16.10
2009,04,06,14,17,16.00
2009,04,06,14,18,16.00
2009,04,06,14,19,16.10
2009,04,06,14,20,16.10
2009,04,06,14,21,16.10
2009,04,06,14,22,16.10
2009,04,06,14,23,16.10
2009,04,06,14,24,16.10
2009,04,06,14,25,16.20
2009,04,06,14,26,16.20
2009,04,06,14,27,16.20
2009,04,06,14,28,16.20
2009,04,06,14,29,16.30
2009,04,06,14,30,16.30
2009,04,06,14,31,16.40
2009,04,06,14,32,16.50
2009,04,06,14,33,16.60
2009,04,06,14,34,16.60
2009,04,06,14,35,16.70
2009,04,06,14,36,16.70
2009,04,06,14,37,16.70
2009,04,06,14,38,16.70
2009,04,06,14,39,16.60
2009,04,06,14,40,16.60
2009,04,06,14,41,16.50
2009,04,06,14,42,16.50
2009,04,06,14,43,16.50
2009,04,06,14,44,16.40
2009,04,06,14,45,16.40
2009,04,06,14,46,16.40
2009,04,06,14,47,16.30
2009,04,06,14,48,16.30
2009,04,06,14,49,16.30
2009,04,06,14,50,16.40
2009,04,06,14,51,16.40
2009,04,06,14,52,16.40
2009,04,06,14,53,16.50
2009,04,06,14,54,16.50
2009,04,06,14,55,16.60
2009,04,06,14,56,16.60
2009,04,06,14,57,16.60
2009,04,06,14,58,16.60
2009,04,06,14,59,16.60
2009,04,06,15,00,16.60
2009,04,06,15,01,16.60
2009,04,06,15,02,16.70
2009,04,06,15,03,16.70
2009,04,06,15,04,16.70
2009,04,06,15,05,16.70
2009,04,06,15,06,16.70
2009,04,06,15,07,16.70
2009,04,06,15,08,16.60
2009,04,06,15,09,16.60
2009,04,06,15,10,16.60
2009,04,06,15,11,16.60
2009,04,06,15,12,16.50
2009,04,06,15,13,16.50
2009,04,06,15,14,16.50
2009,04,06,15,15,16.60
2009,04,06,15,16,16.70
2009,04,06,15,17,16.70
2009,04,06,15,18,16.80
2009,04,06,15,19,16.90
2009,04,06,15,20,16.90
2009,04,06,15,21,17.00
2009,04,06,15,22,17.10
2009,04,06,15,23,17.10
2009,04,06,15,24,17.20
2009,04,06,15,25,17.20
2009,04,06,15,26,17.20
2009,04,06,15,27,17.30
2009,04,06,15,28,17.30
2009,04,06,15,29,17.30
2009,04,06,15,30,17.40
2009,04,06,15,31,17.40
2009,04,06,15,32,17.40
2009,04,06,15,33,17.40
2009,04,06,15,34,17.40
2009,04,06,15,35,17.40
2009,04,06,15,36,17.40
2009,04,06,15,37,17.40
2009,04,06,15,38,17.30
2009,04,06,15,39,17.30
2009,04,06,15,40,17.30
2009,04,06,15,41,17.30
2009,04,06,15,42,17.30
2009,04,06,15,43,17.30
2009,04,06,15,44,17.30
2009,04,06,15,45,17.40
2009,04,06,15,46,17.50
2009,04,06,15,47,17.50
2009,04,06,15,48,17.60
2009,04,06,15,49,17.60
2009,04,06,15,50,17.60
2009,04,06,15,51,17.60
2009,04,06,15,52,17.60
2009,04,06,15,53,17.70
2009,04,06,15,54,17.80
2009,04,06,15,55,17.90
2009,04,06,15,56,18.00
2009,04,06,15,57,18.10
2009,04,06,15,58,18.20
2009,04,06,15,59,18.20
2009,04,06,16,00,18.20
2009,04,06,16,01,18.20
2009,04,06,16,02,18.10
2009,04,06,16,03,18.00
2009,04,06,16,04,18.00
2009,04,06,16,05,18.00
2009,04,06,16,06,18.00
2009,04,06,16,07,17.90
2009,04,06,16,08,17.90
2009,04,06,16,09,17.80
2009,04,06,16,10,17.80
2009,04,06,16,11,17.90
2009,04,06,16,12,17.90
2009,04,06,16,13,18.00
2009,04,06,16,14,18.00
2009,04,06,16,15,18.00
2009,04,06,16,16,17.90
2009,04,06,16,17,17.80
2009,04,06,16,18,17.80
2009,04,06,16,19,17.80
2009,04,06,16,20,17.80
2009,04,06,16,21,17.80
2009,04,06,16,22,17.80
2009,04,06,16,23,17.80
2009,04,06,16,24,17.80
2009,04,06,16,25,17.90
2009,04,06,16,26,17.90
2009,04,06,16,27,17.90
2009,04,06,16,28,18.00
2009,04,06,16,29,18.00
2009,04,06,16,30,17.90
2009,04,06,16,31,17.90
2009,04,06,16,32,18.00
2009,04,06,16,33,18.00
2009,04,06,16,34,18.00
2009,04,06,16,35,18.00
2009,04,06,16,36,17.90
2009,04,06,16,37,17.90
2009,04,06,16,38,17.90
2009,04,06,16,39,17.90
2009,04,06,16,40,17.90
2009,04,06,16,41,17.90
2009,04,06,16,42,17.90
2009,04,06,16,43,18.00
2009,04,06,16,44,18.00
2009,04,06,16,45,17.90
2009,04,06,16,46,17.90
2009,04,06,16,47,17.90
2009,04,06,16,48,17.90
2009,04,06,16,49,17.80
2009,04,06,16,50,17.80
2009,04,06,16,51,17.80
2009,04,06,16,52,17.80
2009,04,06,16,53,17.80
2009,04,06,16,54,17.80
2009,04,06,16,55,17.80
2009,04,06,16,56,17.90
2009,04,06,16,57,17.90
2009,04,06,16,58,17.90
2009,04,06,16,59,17.90
2009,04,06,17,00,17.90
2009,04,06,17,01,17.90
2009,04,06,17,02,17.90
2009,04,06,17,03,17.80
2009,04,06,17,04,17.80
2009,04,06,17,05,17.80
2009,04,06,17,06,17.80
2009,04,06,17,07,17.80
2009,04,06,17,08,17.80
2009,04,06,17,09,17.70
2009,04,06,17,10,17.70
2009,04,06,17,11,17.70
2009,04,06,17,12,17.70
2009,04,06,17,13,17.70
2009,04,06,17,14,17.60
2009,04,06,17,15,17.60
2009,04,06,17,16,17.60
2009,04,06,17,17,17.60
2009,04,06,17,18,17.70
2009,04,06,17,19,17.70
2009,04,06,17,20,17.70
2009,04,06,17,21,17.70
2009,04,06,17,22,17.80
2009,04,06,17,23,17.80
2009,04,06,17,24,17.70
2009,04,06,17,25,17.70
2009,04,06,17,26,17.70
2009,04,06,17,27,17.60
2009,04,06,17,28,17.60
2009,04,06,17,29,17.60
2009,04,06,17,30,17.50
2009,04,06,17,31,17.40
2009,04,06,17,32,17.40
2009,04,06,17,33,17.30
2009,04,06,17,34,17.30
2009,04,06,17,35,17.20
2009,04,06,17,36,17.20
2009,04,06,17,37,17.20
2009,04,06,17,38,17.20
2009,04,06,17,39,17.10
2009,04,06,17,40,17.10
2009,04,06,17,41,17.00
2009,04,06,17,42,17.00
2009,04,06,17,43,17.00
2009,04,06,17,44,17.00
2009,04,06,17,45,16.90